Lapse_Rate
6.3 6.1 5.9 5.9 5.8 5.2 5.6 5.7 5.5 5.4 5.4 5.3 5.6 5.4 5.3 5.2 5.0 4.7 4.9 5.2 5.0 5.0
6.2 6.3 6.2 5.9 5.8 5.4 5.4 5.6 5.5 5.4 5.3 5.2 5.2 5.2 5.3 5.3 5.2 5.1 5.0 5.1 5.2 5.2
6.4 6.3 6.2 6.0 5.9 5.9 5.3 5.2 5.4 5.5 5.4 5.2 5.2 5.3 5.2 5.4 5.4 5.3 5.2 5.1 5.1 5.3
6.2 6.3 6.0 6.1 6.0 5.9 5.6 5.2 5.2 5.3 5.5 5.4 5.3 5.3 5.2 5.4 5.6 5.5 5.5 5.5 5.4 5.5
5.5 6.0 6.1 6.0 6.0 5.9 5.7 5.6 5.5 5.5 5.5 5.5 5.4 5.4 5.6 5.6 5.6 5.6 5.7 5.7 5.8 5.6
5.1 5.6 6.2 6.1 6.0 6.0 5.9 5.8 5.7 5.7 5.7 5.6 5.4 5.4 5.4 5.6 5.7 5.7 5.8 5.8 5.9 5.8
5.3 5.2 5.5 6.1 6.1 6.0 6.0 5.9 5.8 5.8 5.6 5.6 5.5 5.5 5.6 5.7 5.8 5.6 5.7 5.9 6.0 6.0
5.3 5.1 5.0 5.2 5.9 6.1 5.9 6.0 5.9 5.9 5.9 5.5 5.5 5.6 5.8 5.9 6.0 5.9 5.7 5.8 5.9 6.0
5.5 5.3 5.1 5.0 5.2 5.5 6.0 5.9 5.9 6.0 6.0 6.0 5.7 5.9 5.9 6.0 6.2 6.2 6.2 6.1 6.0 6.0
6.1 5.8 5.5 5.3 5.3 5.3 5.6 5.8 5.8 6.0 6.1 6.1 6.1 6.1 6.0 6.0 6.1 6.2 6.4 6.4 6.3 6.2
6.6 6.3 5.9 5.5 5.4 5.4 5.4 5.7 5.7 5.8 5.9 6.1 6.3 6.2 6.2 6.2 6.1 6.0 6.2 6.4 6.5 6.5
7.1 6.8 6.3 6.0 5.7 5.4 5.5 5.8 5.9 5.9 6.1 6.0 6.1 6.3 6.3 6.1 6.0 6.2 6.3 6.4 6.4 6.4
7.0 7.1 7.0 6.4 6.3 6.0 5.9 6.3 6.4 6.3 6.2 6.5 6.6 6.4 6.3 6.1 5.9 5.9 6.4 6.6 6.6 6.5
7.1 7.1 7.6 7.1 6.7 6.4 6.2 6.1 5.9 6.2 6.3 6.4 6.7 7.0 6.7 6.4 6.1 6.0 6.2 6.5 6.8 6.9
Wind_Speed
8 7 6 7 4 5 5 5 6 7 7 7 7 6 6 3 3 3 3 3 2 1
8 8 8 7 5 5 5 4 6 8 6 7 7 8 6 4 4 3 2 3 3 2
12 9 8 8 8 7 5 5 5 6 6 6 8 8 6 4 4 4 3 3 4 3
9 9 7 9 9 8 5 6 6 7 7 7 7 6 5 5 5 5 5 4 4 5
9 9 9 9 9 9 9 5 7 7 7 7 7 8 8 8 7 7 6 6 5 6
10 11 11 10 8 9 10 9 7 7 8 8 8 8 9 9 8 8 7 7 7 7
11 11 12 12 11 11 11 11 10 9 9 8 8 9 8 9 9 9 8 8 8 7
13 12 10 10 10 11 11 11 11 11 10 9 8 8 9 9 10 10 9 8 8 8
13 11 12 11 11 10 11 11 10 11 12 12 9 12 15 11 9 11 10 10 9 9
11 12 13 13 11 12 12 11 13 13 12 13 13 15 17 17 10 10 11 10 9 8
13 14 13 13 13 13 11 11 11 12 13 13 12 15 18 19 14 12 12 11 11 12
11 12 11 12 12 11 10 11 12 11 12 14 14 17 19 15 13 14 14 12 12 12
7 6 11 11 13 11 11 12 10 12 13 15 15 15 19 17 11 13 11 12 12 16
5 6 5 4 8 8 10 11 12 13 13 14 14 15 18 20 14 12 11 12 11 10
Wind_Direction
186 184 183 183 179 191 199 204 189 202 207 211 195 199 194 203 220 210 220 214 187 197
190 187 188 180 184 190 196 204 187 199 197 207 207 194 188 202 219 223 219 238 235 239
196 199 192 181 191 189 198 194 180 195 199 201 206 191 186 199 206 210 223 226 234 239
198 191 199 196 196 196 184 186 193 197 206 195 207 206 191 204 203 214 227 225 225 246
187 191 196 212 202 187 200 185 199 196 204 213 203 199 203 206 210 207 218 230 225 243
199 183 201 210 211 201 198 197 195 192 204 210 211 204 211 213 210 215 215 219 218 235
208 211 209 204 207 207 205 206 198 200 206 209 209 208 210 212 217 219 223 223 222 229
209 209 213 216 210 208 208 215 210 202 203 209 210 211 206 208 216 219 223 228 231 234
207 205 208 211 210 200 211 212 207 212 206 205 214 207 201 199 211 216 220 227 230 236
210 204 209 210 209 215 214 206 216 211 208 215 216 204 207 206 214 212 216 220 224 230
218 217 213 209 209 213 212 212 211 217 211 215 220 207 209 210 218 222 222 215 215 222
228 227 225 216 212 220 215 214 217 217 211 215 225 208 211 206 219 225 229 225 222 219
342 316 223 214 220 217 219 221 221 226 220 213 221 212 206 203 222 229 231 229 225 217
343 319 306 274 221 218 225 233 227 224 227 226 218 220 203 200 214 224 228 231 230 225